Location: Caltech
(34.1382°N, 118.1253°W)
Time: 09:52:44
(UTC-07:00)

Iridium 91 - Visible Passes

Search period start: 24 October 2014 00:00
Search period end: 02 November 2014 23:00
Orbit: 775 x 780 km, 86.4° (Epoch: 23 October)

Date Brightness Start Highest point End Pass type
(mag) Time Alt. Az. Time Alt. Az. Time Alt. Az.
31 Oct 7.2 19:55:46 10° S 19:57:17 20° SSE 19:57:17 20° SSE visible
01 Nov 8.5 06:31:36 10° NE 06:34:18 14° ENE 06:36:59 10° ESE visible
01 Nov 6.5 19:22:56 10° SSE 19:25:57 27° ESE 19:25:57 27° ESE visible
01 Nov 7.8 21:04:11 10° SW 21:06:35 20° WSW 21:06:35 20° WSW visible
02 Nov 6.8 17:50:58 10° ESE 17:54:14 17° E 17:57:30 10° NE visible
02 Nov 6.5 19:29:35 10° SSW 19:34:31 43° W 19:39:28 10° NNW visible
